F3825 Weather Reports


time (UTC)temp
F
wind
direction
speed
knots
gust
knots
rain 1hr
in
rain 24hr
in
rain mn
in
humidity
%
barometer
mb
20260508005250 64 273 0.0 5.2 0.00 0.00 0.00 69 1011.9
20260508004314 64 248 0.0 5.2 0.00 0.00 0.00 69 1012.1
20260508002143 65 257 0.0 5.2 0.00 0.00 0.00 68 1012.4
20260508001146 65 248 0.0 5.2 0.00 0.00 0.00 67 1012.7
20260508000136 66 236 0.0 1.7 0.00 0.00 0.00 67 1013.0
20260507235101 66 260 0.0 0.9 0.00 0.00 0.00 66 1013.0
20260507234056 66 187 0.0 2.6 0.00 0.00 0.00 66 1013.1
20260507233115 66 252 0.0 1.7 0.00 0.00 0.00 66 1013.0
20260507232109 66 240 0.0 4.3 0.00 0.00 0.00 65 1012.6
20260507231055 66 217 0.9 5.2 0.00 0.00 0.00 65 1013.2
20260507230117 66 152 0.0 3.5 0.00 0.00 0.00 65 1013.0
20260507225105 66 247 0.0 4.3 0.00 0.00 0.00 64 1012.8
20260507224039 66 253 0.0 4.3 0.00 0.00 0.00 64 1013.1
20260507221923 66 184 0.9 10.4 0.00 0.00 0.00 65 1013.6
20260507220942 66 150 1.7 7.8 0.00 0.00 0.00 64 1013.4
20260507213554 67 193 2.6 10.4 0.00 0.00 0.00 66 1013.5
20260507212549 67 268 0.9 7.8 0.00 0.00 0.00 66 1013.1
20260507211554 66 260 0.9 7.0 0.00 0.00 0.00 68 1013.1
20260507210533 65 0 0.9 5.2 0.00 0.00 0.00 68 1013.4
20260507205557 65 192 0.9 7.8 0.00 0.00 0.00 67 1013.8
20260507204524 65 150 0.9 7.8 0.00 0.00 0.00 68 1014.2
20260507203527 65 219 1.7 7.8 0.00 0.00 0.00 68 1014.3
20260507202521 65 194 0.9 8.7 0.00 0.00 0.00 69 1014.3
20260507201451 65 155 1.7 8.7 0.00 0.00 0.00 68 1014.0
20260507200427 64 223 0.9 8.7 0.00 0.00 0.00 69 1014.5
20260507195444 64 19 1.7 8.7 0.00 0.00 0.00 68 1014.4
20260507194506 64 236 0.9 6.1 0.00 0.00 0.00 68 1014.7
20260507193455 64 248 1.7 8.7 0.00 0.00 0.00 69 1014.7
20260507191345 63 250 0.0 7.8 0.00 0.00 0.00 70 1014.9
20260507190402 63 285 0.9 7.8 0.00 0.00 0.00 70 1014.8
20260507185354 64 267 0.9 7.0 0.00 0.00 0.00 69 1014.9
20260507183312 63 200 0.9 9.6 0.00 0.00 0.00 70 1015.2
20260507182317 63 259 1.7 12.2 0.00 0.00 0.00 71 1014.9
20260507181301 63 289 1.7 12.2 0.00 0.00 0.00 72 1015.3
20260507175215 63 209 0.9 8.7 0.00 0.00 0.00 71 1014.9
20260507174226 62 187 0.9 7.0 0.00 0.00 0.00 72 1015.2
20260507173234 62 288 0.9 5.2 0.00 0.00 0.00 73 1015.2
20260507171115 61 215 1.7 10.4 0.00 0.00 0.00 74 1014.9
20260507170130 61 183 0.9 9.6 0.00 0.00 0.00 75 1015.6
20260507165136 60 270 0.9 8.7 0.00 0.00 0.00 75 1015.5
20260507164106 60 275 1.7 10.4 0.00 0.00 0.00 76 1015.6
20260507163110 59 202 1.7 10.4 0.00 0.00 0.00 76 1016.6
20260507162054 59 134 1.7 9.6 0.00 0.00 0.00 76 1016.9
20260507161036 59 199 0.9 7.8 0.00 0.00 0.00 76 1016.5
20260507160022 59 145 0.0 6.1 0.00 0.00 0.00 76 1016.7
20260507154947 59 167 1.7 10.4 0.00 0.00 0.00 76 1016.4
20260507153946 59 145 1.7 10.4 0.00 0.00 0.00 78 1016.3
20260507152950 59 192 2.6 8.7 0.00 0.00 0.00 79 1016.3
20260507151915 58 203 1.7 7.8 0.00 0.00 0.00 80 1016.1
20260507150851 58 181 2.6 7.8 0.00 0.00 0.00 80 1016.3
20260507144730 58 205 2.6 11.3 0.00 0.00 0.00 80 1016.2
20260507143704 58 126 0.9 10.4 0.00 0.00 0.00 80 1015.8
20260507141638 58 240 1.7 11.3 0.00 0.00 0.00 81 1015.8
20260507140632 58 211 2.6 14.8 0.00 0.00 0.00 81 1015.6
20260507134538 59 190 2.6 12.2 0.00 0.00 0.00 81 1015.3
20260507133542 59 219 2.6 12.2 0.00 0.00 0.00 81 1015.3
20260507132520 59 210 2.6 11.3 0.00 0.00 0.00 83 1015.3
20260507131509 58 191 2.6 13.9 0.00 0.00 0.00 84 1015.4
20260507130459 58 116 2.6 13.9 0.00 0.00 0.00 84 1015.3
20260507125451 58 182 2.6 13.0 0.00 0.00 0.00 84 1015.5
20260507124508 58 235 2.6 12.2 0.00 0.00 0.00 84 1015.2
20260507123449 58 139 1.7 12.2 0.00 0.00 0.00 84 1015.3
20260507122500 58 197 1.7 10.4 0.00 0.00 0.00 85 1014.9
20260507121454 58 187 1.7 12.2 0.00 0.00 0.00 85 1014.7
20260507120422 58 202 1.7 12.2 0.00 0.00 0.00 85 1014.5
20260507114214 58 111 1.7 9.6 0.00 0.00 0.00 85 1014.2
20260507113210 58 213 2.6 11.3 0.00 0.00 0.00 85 1014.1
20260507112137 58 140 3.5 11.3 0.00 0.00 0.00 85 1014.2
20260507111109 58 173 1.7 10.4 0.00 0.00 0.00 85 1014.2
20260507110118 58 178 2.6 10.4 0.00 0.00 0.00 85 1014.3
20260507105129 58 177 2.6 7.8 0.00 0.00 0.00 85 1014.3
20260507104151 58 180 1.7 9.6 0.00 0.00 0.00 84 1014.2
20260507103153 58 211 2.6 9.6 0.00 0.00 0.00 84 1013.5
20260507102149 58 194 2.6 12.2 0.00 0.00 0.00 84 1013.8
20260507101140 58 205 2.6 12.2 0.00 0.00 0.00 84 1013.6
20260507100116 58 198 2.6 8.7 0.00 0.00 0.00 84 1013.5
20260507093936 58 164 0.9 4.3 0.00 0.00 0.00 83 1013.6
20260507092920 58 173 0.0 7.8 0.00 0.00 0.00 83 1013.6
20260507091849 58 185 0.9 7.8 0.00 0.00 0.00 83 1013.7
20260507090857 58 198 0.0 5.2 0.00 0.00 0.00 83 1013.2
20260507085838 58 154 0.0 3.5 0.00 0.00 0.00 83 1013.0
20260507084808 58 166 0.0 0.9 0.00 0.00 0.00 83 1012.7
20260507083735 58 144 0.0 2.6 0.00 0.00 0.00 82 1013.0
20260507082753 58 180 0.9 7.0 0.00 0.00 0.00 82 1012.7
20260507081806 59 205 0.9 7.0 0.00 0.00 0.00 82 1012.4
20260507080829 59 205 0.0 2.6 0.00 0.00 0.00 82 1012.9
20260507075844 59 174 0.0 6.1 0.00 0.00 0.00 81 1012.2
20260507072533 59 221 0.0 3.5 0.00 0.00 0.00 81 1012.3
20260507071554 59 190 0.0 2.6 0.00 0.00 0.00 80 1012.6
20260507070601 60 227 0.9 7.8 0.00 0.00 0.00 80 1012.7
20260507065615 60 161 0.9 7.8 0.00 0.00 0.00 80 1012.5
20260507064555 60 248 0.0 7.8 0.00 0.00 0.00 79 1012.3
20260507063536 60 193 0.0 3.5 0.00 0.00 0.00 79 1012.0
20260507062539 60 177 0.0 9.6 0.00 0.00 0.00 79 1012.5
20260507061539 60 202 0.9 9.6 0.00 0.00 0.00 79 1012.0
20260507060541 61 234 0.9 5.2 0.00 0.00 0.00 79 1012.5
20260507055512 61 162 0.0 5.2 0.00 0.00 0.00 78 1012.5
20260507053337 61 175 0.0 5.2 0.00 0.00 0.00 78 1012.0
20260507051238 61 121 0.9 7.8 0.00 0.00 0.00 78 1012.1
20260507050238 61 217 0.0 7.8 0.00 0.00 0.00 78 1012.3
20260507044116 61 146 0.9 13.9 0.00 0.00 0.00 79 1012.5
20260507041954 61 219 0.9 7.8 0.00 0.00 0.00 79 1012.1
20260507040949 61 183 0.9 5.2 0.00 0.00 0.00 79 1012.5
20260507035923 61 205 1.7 7.0 0.00 0.00 0.00 79 1012.3
20260507034912 61 223 1.7 7.0 0.00 0.00 0.00 79 1012.1
20260507033848 61 152 0.9 4.3 0.00 0.00 0.00 79 1012.2
20260507032908 61 209 0.9 5.2 0.00 0.00 0.00 79 1011.9
20260507030703 61 198 0.9 8.7 0.00 0.00 0.00 79 1012.0
20260507025701 61 130 1.7 8.7 0.00 0.00 0.00 79 1011.6
20260507024702 61 171 0.9 5.2 0.00 0.00 0.00 79 1011.8
20260507023707 61 154 0.9 6.1 0.00 0.00 0.00 79 1011.6
20260507022730 61 174 1.7 12.2 0.00 0.00 0.00 79 1011.3
20260507021740 61 178 2.6 12.2 0.00 0.00 0.00 78 1011.2
20260507020727 61 153 1.7 7.8 0.00 0.00 0.00 78 1011.3
20260507015734 61 134 1.7 7.8 0.00 0.00 0.00 78 1010.9
20260507014743 61 134 1.7 7.8 0.00 0.00 0.00 78 1010.7
20260507012630 62 159 0.9 7.0 0.00 0.00 0.00 78 1010.1
20260507011649 62 175 0.9 7.0 0.00 0.00 0.00 78 1009.9